�N����,����,�~����,�C��,���x,�C��,����,���ϕ���,�ő�u�ԕ���,�ő厞����,���˗�,�I�_���x,�n�����x,�ő啗���N��,DTYPE
"21/12/09","00:10",0.0,7.7,84.9,1022.5,322.1,2.1,2.8,341.8,0.00,5.4,11.1,"00:03:28",1
"21/12/09","00:20",0.0,7.3,85.1,1023.0,307.7,1.7,2.8,320.5,0.00,5.0,10.9,"00:11:44",1
"21/12/09","00:30",0.0,7.0,85.6,1022.5,295.1,1.5,2.2,288.9,0.00,4.8,11.0,"00:20:02",1
"21/12/09","00:40",0.0,6.8,86.1,1023.0,300.5,1.2,2.6,306.6,0.00,4.7,10.8,"00:30:32",1
"21/12/09","00:50",0.0,6.6,86.8,1023.0,328.7,1.3,2.2,298.9,0.00,4.6,10.9,"00:46:40",1
"21/12/09","01:00",0.0,5.9,87.1,1022.5,300.9,1.1,3.2,314.8,0.00,4.0,10.7,"00:51:28",1
"21/12/09","01:10",0.0,5.6,87.9,1022.5,292.6,0.8,2.1,269.7,0.00,3.8,10.9,"01:07:44",1
"21/12/09","01:20",0.0,5.4,88.7,1022.7,308.8,1.0,2.1,295.8,0.00,3.7,10.7,"01:18:48",1
"21/12/09","01:30",0.0,5.5,89.2,1022.7,326.3,1.5,3.4,317.1,0.00,3.9,10.8,"01:24:00",1
"21/12/09","01:40",0.0,5.2,90.0,1022.5,347.4,1.2,3.1,320.4,0.00,3.7,10.8,"01:35:12",1
"21/12/09","01:50",0.0,5.0,90.5,1022.3,295.9,1.3,2.8,311.5,0.00,3.6,10.7,"01:42:00",1
"21/12/09","02:00",0.0,4.9,91.1,1022.5,302.1,1.3,2.7,317.6,0.00,3.6,10.6,"01:50:40",1
"21/12/09","02:10",0.0,4.8,91.4,1022.7,297.0,1.1,2.2,321.0,0.00,3.6,10.7,"02:03:02",1
"21/12/09","02:20",0.0,4.9,91.9,1022.5,310.3,1.6,2.8,326.2,0.00,3.7,10.6,"02:18:24",1
"21/12/09","02:30",0.0,4.8,92.1,1022.5,293.7,1.5,2.6,321.6,0.00,3.7,10.6,"02:21:44",1
"21/12/09","02:40",0.0,5.0,92.7,1022.5,272.5,0.7,1.8,320.4,0.00,4.0,10.4,"02:31:44",1
"21/12/09","02:50",0.0,5.5,93.0,1022.5,5.1,0.5,2.8,306.8,0.00,4.5,10.4,"02:40:02",1
"21/12/09","03:00",0.0,5.9,93.0,1022.7,317.6,2.3,3.4,317.5,0.00,4.9,10.7,"02:50:40",1
"21/12/09","03:10",0.0,6.0,93.4,1022.7,321.6,2.1,3.1,331.1,0.00,5.1,10.3,"03:02:40",1
"21/12/09","03:20",0.0,6.4,93.5,1022.7,333.2,0.6,1.3,276.3,0.00,5.5,10.4,"03:10:16",1
"21/12/09","03:30",0.0,6.4,93.6,1023.0,283.9,1.2,1.7,286.7,0.00,5.5,10.4,"03:22:56",1
"21/12/09","03:40",0.0,6.4,93.9,1023.0,247.4,0.3,0.9,249.3,0.00,5.5,10.3,"03:31:12",1
"21/12/09","03:50",0.0,6.3,93.9,1022.7,265.7,0.8,1.7,260.0,0.00,5.4,10.2,"03:46:16",1
"21/12/09","04:00",0.0,6.0,94.1,1022.7,298.0,1.1,1.8,264.5,0.00,5.2,10.3,"03:54:00",1
"21/12/09","04:10",0.0,5.7,94.3,1022.5,305.5,1.6,2.2,327.1,0.00,4.9,10.2,"04:04:48",1
"21/12/09","04:20",0.0,5.6,94.5,1022.5,322.0,1.7,2.5,312.9,0.00,4.8,10.3,"04:14:32",1
"21/12/09","04:30",0.0,5.2,94.7,1022.3,290.7,1.6,2.5,310.5,0.00,4.5,10.2,"04:23:52",1
"21/12/09","04:40",0.0,5.3,94.9,1022.7,315.4,1.6,2.5,318.4,0.00,4.6,10.4,"04:38:40",1
"21/12/09","04:50",0.0,5.1,95.1,1022.3,312.1,1.2,2.6,324.2,0.00,4.4,10.2,"04:40:08",1
"21/12/09","05:00",0.0,4.8,95.2,1022.3,293.4,1.1,2.7,318.9,0.00,4.1,10.3,"04:57:12",1
"21/12/09","05:10",0.0,4.6,95.5,1022.5,263.9,0.6,1.4,284.9,0.00,4.0,10.2,"05:00:16",1
"21/12/09","05:20",0.0,5.1,95.6,1022.7,284.3,1.2,2.4,337.3,0.00,4.5,10.3,"05:19:28",1
"21/12/09","05:30",0.0,4.8,95.6,1022.7,320.0,2.1,2.8,324.8,0.00,4.2,10.1,"05:22:08",1
"21/12/09","05:40",0.0,4.7,95.9,1022.7,297.4,1.2,1.8,318.0,0.00,4.1,10.1,"05:30:16",1
"21/12/09","05:50",0.0,4.8,95.9,1023.0,294.2,1.1,2.2,305.4,0.00,4.2,10.1,"05:49:28",1
"21/12/09","06:00",0.0,4.7,96.1,1023.2,291.6,1.3,1.9,316.7,0.00,4.2,10.3,"05:56:48",1
"21/12/09","06:10",0.0,5.0,96.1,1023.0,304.1,1.2,2.0,313.4,0.00,4.5,10.2,"06:09:44",1
"21/12/09","06:20",0.0,5.0,96.0,1023.2,312.1,1.8,2.2,309.1,0.00,4.5,10.3,"06:12:16",1
"21/12/09","06:30",0.0,4.9,96.1,1023.4,296.7,1.5,2.1,312.8,0.00,4.4,10.0,"06:23:28",1
"21/12/09","06:40",0.0,4.8,96.2,1023.0,290.4,1.5,2.1,314.1,0.00,4.3,9.9,"06:35:12",1
"21/12/09","06:50",0.0,4.8,96.4,1023.4,278.2,0.8,1.8,320.0,0.00,4.3,9.9,"06:41:20",1
"21/12/09","07:00",0.0,4.6,96.4,1023.2,271.7,0.6,1.1,275.5,0.00,4.1,9.9,"06:54:16",1
"21/12/09","07:10",0.0,4.6,96.5,1023.4,290.0,1.5,2.4,318.3,0.00,4.1,9.8,"07:08:56",1
"21/12/09","07:20",0.0,4.6,96.6,1023.2,315.6,2.0,2.6,321.7,0.00,4.1,10.0,"07:11:20",1
"21/12/09","07:30",0.0,4.5,96.7,1023.2,297.8,1.6,2.1,305.7,0.00,4.1,9.9,"07:23:36",1
"21/12/09","07:40",0.0,4.6,96.8,1023.4,313.5,1.7,2.5,329.5,0.00,4.2,10.0,"07:37:12",1
"21/12/09","07:50",0.0,4.6,96.9,1023.7,274.1,1.0,2.1,309.5,0.00,4.2,9.7,"07:41:44",1
"21/12/09","08:00",0.0,4.7,97.0,1023.7,293.4,1.0,1.4,321.9,0.00,4.3,9.9,"07:58:32",1
"21/12/09","08:10",0.0,5.4,97.0,1023.9,318.9,1.1,1.8,329.9,0.01,5.0,9.9,"08:09:06",1
"21/12/09","08:20",0.0,5.7,97.1,1024.1,289.5,0.6,1.8,314.5,0.02,5.3,9.8,"08:10:52",1
"21/12/09","08:30",0.0,6.1,97.1,1024.1,300.7,0.2,0.9,288.9,0.03,5.7,9.7,"08:29:46",1
"21/12/09","08:40",0.0,6.7,97.1,1024.6,282.1,0.6,1.1,288.7,0.04,6.3,9.8,"08:32:00",1
"21/12/09","08:50",0.0,7.3,97.0,1024.6,264.9,0.6,1.2,298.3,0.06,6.9,9.7,"08:46:26",1
"21/12/09","09:00",0.0,7.8,96.7,1025.1,217.1,0.8,1.9,197.6,0.09,7.3,9.7,"08:56:08",1
"21/12/09","09:10",0.0,8.1,96.5,1025.1,192.3,0.8,2.2,136.9,0.12,7.6,9.7,"09:03:32",1
"21/12/09","09:20",0.0,8.2,96.4,1025.6,118.7,1.0,2.0,106.5,0.15,7.7,9.7,"09:17:52",1
"21/12/09","09:30",0.0,8.5,96.1,1025.3,108.1,0.8,2.1,111.5,0.18,8.0,9.6,"09:24:08",1
"21/12/09","09:40",0.0,8.7,95.8,1025.3,100.9,0.6,1.7,101.3,0.20,8.1,9.9,"09:31:44",1
"21/12/09","09:50",0.0,9.5,95.3,1025.8,307.9,0.7,1.6,331.5,0.22,8.8,9.7,"09:40:40",1
"21/12/09","10:00",0.0,9.8,94.5,1026.3,319.1,0.5,1.7,61.4,0.25,9.0,9.7,"09:55:20",1
"21/12/09","10:10",0.0,9.9,93.8,1026.0,164.2,0.5,1.6,119.8,0.28,9.0,9.8,"10:02:48",1
"21/12/09","10:20",0.0,10.2,92.3,1026.0,259.9,1.0,1.8,263.0,0.29,9.0,10.0,"10:14:16",1
"21/12/09","10:30",0.0,10.8,90.6,1026.3,178.8,0.8,2.2,122.7,0.31,9.4,9.9,"10:24:00",1
"21/12/09","10:40",0.0,10.9,88.0,1026.0,104.9,0.7,1.7,101.0,0.33,9.0,10.0,"10:35:52",1
"21/12/09","10:50",0.0,11.2,84.9,1025.8,245.5,1.5,2.9,247.9,0.34,8.8,10.0,"10:45:36",1
"21/12/09","11:00",0.0,11.8,82.1,1025.8,282.6,0.8,1.7,266.5,0.36,8.9,9.9,"10:52:16",1
"21/12/09","11:10",0.0,12.3,78.9,1025.8,335.6,1.1,1.8,322.0,0.37,8.8,10.1,"11:03:28",1
"21/12/09","11:20",0.0,12.3,76.1,1025.3,302.9,1.3,2.5,322.7,0.38,8.3,10.2,"11:13:52",1
"21/12/09","11:30",0.0,12.8,74.6,1024.9,252.7,1.2,2.6,239.3,0.39,8.4,10.3,"11:26:16",1
"21/12/09","11:40",0.0,13.3,73.4,1024.4,213.5,1.0,2.4,239.6,0.40,8.7,10.2,"11:36:56",1
"21/12/09","11:50",0.0,13.5,71.8,1024.4,195.9,1.1,2.4,192.1,0.40,8.6,10.3,"11:47:36",1
"21/12/09","12:00",0.0,13.3,71.6,1024.1,209.7,1.7,3.2,146.1,0.41,8.3,10.3,"11:53:04",1
"21/12/09","12:10",0.0,13.9,71.1,1023.9,215.8,1.1,2.5,230.3,0.41,8.8,10.5,"12:07:44",1
"21/12/09","12:20",0.0,14.3,70.0,1023.9,205.7,1.0,1.9,207.6,0.41,8.9,10.4,"12:10:24",1
"21/12/09","12:30",0.0,14.4,68.3,1024.1,154.1,1.1,2.9,106.5,0.43,8.7,10.7,"12:21:36",1
"21/12/09","12:40",0.2,14.5,68.2,1023.4,213.5,1.5,2.8,222.1,0.39,8.8,10.7,"12:31:52",1
"21/12/09","12:50",0.0,14.8,67.8,1023.4,169.0,1.2,2.5,192.0,0.40,9.0,10.7,"12:49:12",1
"21/12/09","13:00",0.0,14.9,67.8,1023.2,182.9,1.2,2.8,112.3,0.35,9.0,10.8,"12:56:16",1
"21/12/09","13:10",0.0,14.9,67.3,1023.2,176.1,1.2,4.0,239.4,0.34,8.9,10.8,"13:05:04",1
"21/12/09","13:20",0.0,15.3,66.8,1023.0,121.0,1.1,2.7,108.4,0.37,9.2,11.2,"13:14:24",1
"21/12/09","13:30",0.0,15.5,65.9,1022.7,150.5,1.3,2.8,190.1,0.36,9.2,11.0,"13:29:20",1
"21/12/09","13:40",0.0,15.7,65.0,1022.7,157.9,1.2,2.7,144.4,0.35,9.2,11.1,"13:34:24",1
"21/12/09","13:50",0.0,15.5,63.9,1022.5,126.3,1.5,2.5,116.9,0.33,8.7,11.3,"13:44:56",1
"21/12/09","14:00",0.0,15.6,63.7,1022.0,227.3,1.6,3.6,234.9,0.32,8.8,11.2,"13:57:28",1
"21/12/09","14:10",0.0,15.9,63.5,1022.5,252.3,1.5,3.6,236.6,0.31,9.0,11.2,"14:01:52",1
"21/12/09","14:20",0.0,16.3,61.8,1022.3,201.7,0.7,1.8,107.0,0.25,9.0,11.4,"14:11:36",1
"21/12/09","14:30",0.0,16.7,61.0,1022.3,265.2,1.1,1.9,252.8,0.27,9.2,11.6,"14:25:52",1
"21/12/09","14:40",0.0,16.3,59.2,1022.3,193.6,0.6,1.2,205.7,0.14,8.4,11.6,"14:35:12",1
"21/12/09","14:50",0.0,15.4,61.5,1022.0,293.5,0.6,1.8,337.3,0.02,8.1,11.5,"14:42:56",1
"21/12/09","15:00",0.0,14.9,64.3,1022.3,255.5,1.3,2.0,249.8,0.02,8.3,11.7,"14:59:52",1
"21/12/09","15:10",0.0,15.5,64.4,1022.3,253.9,1.5,2.1,268.0,0.15,8.9,11.6,"15:09:44",1
"21/12/09","15:20",0.0,16.2,61.3,1022.0,268.9,1.7,3.5,328.9,0.14,8.8,11.9,"15:19:36",1
"21/12/09","15:30",0.0,16.1,56.8,1022.3,331.1,2.3,5.4,343.1,0.12,7.6,11.9,"15:28:24",1
"21/12/09","15:40",0.0,15.9,56.1,1022.0,332.1,3.0,5.6,325.8,0.10,7.2,12.1,"15:34:08",1
"21/12/09","15:50",0.0,15.8,56.8,1022.3,330.4,2.5,5.4,324.3,0.08,7.3,11.8,"15:41:52",1
"21/12/09","16:00",0.0,15.7,56.5,1022.3,333.6,2.5,5.5,323.7,0.06,7.1,12.0,"15:57:20",1
"21/12/09","16:10",0.0,15.3,57.7,1022.5,332.4,2.6,5.8,340.1,0.04,7.1,11.9,"16:04:16",1
"21/12/09","16:20",0.0,15.0,58.8,1022.3,330.9,2.5,4.2,335.2,0.02,7.1,12.0,"16:16:08",1
"21/12/09","16:30",0.0,14.1,60.7,1022.5,333.2,2.3,5.1,320.2,0.00,6.7,12.0,"16:24:16",1
"21/12/09","16:40",0.0,13.6,63.4,1022.5,331.9,2.1,3.9,339.6,0.00,6.8,12.0,"16:33:20",1
"21/12/09","16:50",0.0,13.2,64.5,1022.3,332.3,2.7,5.0,344.0,0.00,6.7,12.2,"16:41:54",1
"21/12/09","17:00",0.0,12.8,66.0,1022.5,334.0,2.5,3.3,323.4,0.00,6.7,12.0,"16:56:14",1
"21/12/09","17:10",0.0,12.3,67.7,1022.7,332.1,2.1,4.0,346.4,0.00,6.5,12.2,"17:01:16",1
"21/12/09","17:20",0.0,11.8,69.8,1022.7,327.3,2.6,4.1,341.2,0.00,6.5,12.0,"17:18:58",1
"21/12/09","17:30",0.0,11.6,71.1,1022.5,330.7,3.5,5.1,339.0,0.00,6.6,11.9,"17:26:06",1
"21/12/09","17:40",0.0,11.5,71.5,1022.5,325.6,3.6,5.8,332.7,0.00,6.6,11.8,"17:31:52",1
"21/12/09","17:50",0.0,11.4,71.9,1022.5,317.0,3.2,4.9,325.0,0.00,6.6,11.9,"17:45:02",1
"21/12/09","18:00",0.0,11.3,72.4,1022.7,321.9,3.5,5.6,334.4,0.00,6.6,11.8,"17:54:46",1
"21/12/09","18:10",0.0,11.2,72.8,1022.5,321.5,3.5,5.7,341.8,0.00,6.5,11.9,"18:06:52",1
"21/12/09","18:20",0.0,11.1,73.2,1022.5,318.4,3.1,5.8,320.1,0.00,6.5,11.9,"18:13:54",1
"21/12/09","18:30",0.0,10.8,73.7,1022.7,318.5,2.3,3.9,335.1,0.00,6.3,11.9,"18:20:16",1
"21/12/09","18:40",0.0,10.5,74.2,1022.7,296.1,1.6,3.3,307.9,0.00,6.1,11.9,"18:33:18",1
"21/12/09","18:50",0.0,9.8,75.0,1022.7,277.5,1.2,1.7,270.5,0.00,5.6,11.7,"18:44:00",1
"21/12/09","19:00",0.0,9.2,76.4,1022.5,267.7,1.2,2.2,252.9,0.00,5.3,11.8,"18:56:00",1
"21/12/09","19:10",0.0,9.0,77.7,1022.7,271.9,1.5,2.6,253.5,0.00,5.4,11.7,"19:08:48",1
"21/12/09","19:20",0.0,9.1,78.9,1022.3,271.0,1.7,2.6,253.1,0.00,5.7,11.6,"19:10:08",1
"21/12/09","19:30",0.0,9.0,80.5,1022.3,271.7,1.8,2.5,263.8,0.00,5.9,11.4,"19:24:00",1
"21/12/09","19:40",0.0,8.6,81.6,1022.5,294.8,1.7,2.5,301.8,0.00,5.7,11.6,"19:36:00",1
"21/12/09","19:50",0.0,8.8,82.8,1022.5,318.3,2.1,3.3,326.0,0.00,6.1,11.7,"19:47:20",1
"21/12/09","20:00",0.0,8.6,83.2,1022.0,296.7,1.6,2.2,323.3,0.00,6.0,11.6,"19:50:24",1
"21/12/09","20:10",0.0,8.1,83.9,1022.5,308.8,2.0,2.7,321.9,0.00,5.6,11.6,"20:04:24",1
"21/12/09","20:20",0.0,7.9,84.8,1022.5,320.2,2.3,2.7,325.5,0.00,5.5,11.5,"20:13:44",1
"21/12/09","20:30",0.0,7.8,85.7,1022.7,319.4,2.3,3.1,323.3,0.00,5.6,11.3,"20:23:44",1
"21/12/09","20:40",0.0,7.7,86.6,1022.7,322.6,2.3,3.2,319.8,0.00,5.6,11.2,"20:30:24",1
"21/12/09","20:50",0.0,7.9,87.3,1022.3,324.9,3.0,3.7,341.0,0.00,6.0,11.2,"20:45:36",1
"21/12/09","21:00",0.0,8.0,87.7,1022.5,328.8,3.0,3.9,337.1,0.00,6.1,11.4,"20:57:20",1
"21/12/09","21:10",0.0,7.9,87.9,1022.7,325.1,2.8,3.5,321.3,0.00,6.1,11.4,"21:02:32",1
"21/12/09","21:20",0.0,7.9,88.1,1023.0,318.6,2.8,3.6,321.5,0.00,6.1,11.2,"21:16:08",1
"21/12/09","21:30",0.0,7.9,88.3,1022.7,323.4,3.0,4.0,308.0,0.00,6.1,11.3,"21:23:04",1
"21/12/09","21:40",0.0,7.9,88.5,1022.7,325.3,3.4,4.8,331.6,0.00,6.2,11.2,"21:30:48",1
"21/12/09","21:50",0.0,8.1,88.4,1023.0,322.7,3.5,4.3,330.5,0.00,6.3,11.3,"21:40:40",1
"21/12/09","22:00",0.0,8.1,88.2,1022.7,310.4,2.7,3.6,321.4,0.00,6.3,11.1,"21:50:32",1
"21/12/09","22:10",0.0,7.6,88.2,1022.7,313.5,0.8,2.6,321.9,0.00,5.8,11.1,"22:00:24",1
"21/12/09","22:20",0.0,7.1,88.3,1023.0,293.9,1.6,2.5,326.2,0.00,5.3,10.9,"22:14:08",1
"21/12/09","22:30",0.0,6.7,88.5,1023.0,288.4,1.3,2.0,313.6,0.00,5.0,10.9,"22:27:04",1
"21/12/09","22:40",0.0,6.3,88.7,1023.0,295.6,1.1,1.8,314.0,0.00,4.6,10.9,"22:32:08",1
"21/12/09","22:50",0.0,6.1,89.0,1022.7,292.7,1.5,2.1,305.7,0.00,4.5,10.8,"22:48:32",1
"21/12/09","23:00",0.0,6.5,89.5,1022.3,305.0,2.1,3.6,330.5,0.00,4.9,10.8,"22:52:00",1
"21/12/09","23:10",0.0,6.3,89.7,1022.3,281.7,1.1,1.9,294.2,0.00,4.8,10.9,"23:01:04",1
"21/12/09","23:20",0.0,6.0,90.1,1022.0,248.5,0.2,0.8,269.4,0.00,4.5,10.8,"23:12:40",1
"21/12/09","23:30",0.0,5.6,90.4,1022.0,297.9,1.1,1.8,314.6,0.00,4.2,10.7,"23:24:08",1
"21/12/09","23:40",0.0,5.5,90.9,1022.3,313.1,1.6,2.2,323.5,0.00,4.2,10.7,"23:36:24",1
"21/12/09","23:50",0.0,5.2,91.1,1022.0,297.5,1.3,1.8,306.6,0.00,3.9,10.7,"23:40:08",1
"21/12/09","24:00",0.0,5.2,91.5,1021.8,302.7,1.6,1.9,314.9,0.00,4.0,10.8,"23:59:20",1
